Regional Weather Roundup
Issued by NWS

Home | Current Version | Previous Version | Text Only | Print | Product List | Glossary On
Versions: 1 2 3 4 5 6 7 8 9 10 11 12 13 14 15 16 17 18 19 20 21 22 23 24 25 26 27 28 29 30 31 32 33 34 35 36 37 38 39 40 41 42 43 44 45 46 47 48 49 50
000
ASCA42 TJSJ 020211
RWRPR
PUERTO RICO/U.S. VIRGIN ISLANDS HOURLY WEATHER ROUNDUP
NATIONAL WEATHER SERVICE SAN JUAN PR
1000 PM AST MON SEP 01 2014

PRZ001-004-020300-
PUERTO RICO

CITY           SKY/WX    TMP DP  RH WIND       PRES   REMARKS
SAN JUAN LMM   MOCLDY    81  77  89 E3        30.03R
PONCE          PTCLDY    81  75  83 NE6       29.96S
CEIBA          CLEAR     82  73  74 E8        30.05R
$$

PRZ006-007-020300-
U.S. VIRGIN ISLANDS

CITY           SKY/WX    TMP DP  RH WIND       PRES   REMARKS
CHRISTIANSTED  CLOUDY    81  75  83 NE5       30.03R
$$

HOURLY WEATHER ROUNDUP FOR THE NEWS MEDIA

CITY           SKY/WX    TMP DP  RH WIND       PRES   REMARKS
MIAMI          PTCLDY    84  73  69 E9        30.07R HX  90
ORLANDO        CLEAR     82  73  74 E7        30.10R
NEW YORK       PTCLDY    78  73  84 S8        29.95S
NEWARK         MOCLDY    82  72  71 S8        29.94R
CHICAGO        MOCLDY    77  63  61 SW10      29.82R
HARTFORD       CLEAR     73  70  90 SW6       29.95R
BOSTON         PTCLDY    76  69  79 SW6       29.93S
DALLAS         CLEAR     91  67  44 SE15      29.86R HX  94
PHILADELPHIA   MOCLDY    81  73  76 S7        29.95S



USA.gov is the U.S. government's official web portal to all federal, state and local government web resources and services.